Retour au catalogue

STARLINK-4128

ActifCommunicationsVLEO
NORAD 53249·PAYLOAD·🇺🇸 United States

Lancé Jul 24, 2022 depuis Cape Canaveral Space Force Station

Loading…

Prochains Passages (prochaines 24 heures)

TLE

FraisSource: CelesTrak SupGP

Époque: Sep 15, 2026, 02:20 UTC

1 53249C 22086H   26258.09770833 -.00037217  00000+0 -11971-2 0  2581
2 53249  53.1579  50.2244 0001207  85.2597 145.2102 15.31711804    15

Suivez STARLINK-4128 en temps réel avec AllMySat

Download on the App Store